Location: Gleizolles
(44.4833°N, 6.7667°E)
Time: 23:40:03
(UTC+00:00)

Courier 1B Rocket - Pass Details

Date: 01 July 2024
Orbit: 920 x 1201 km, 28.3° (Epoch: 23 July)

Event Time Altitude Azimuth Distance (km) Brightness Sun altitude
Exits shadow 02:25:56 14° 197° (SSW) 2,435 6.5 -12.2°
Maximum altitude 02:26:15 14° 194° (SSW) 2,436 6.5 -12.1°
Drops below altitude 10° 02:29:17 10° 166° (SSE) 2,728 7.0 -11.8°
Sets 02:33:34 0° 142° (SE) 3,739 7.9 -11.3°
